Printer-friendly version

IAU Minor Planet Center

Minor Planet Center

MPEC 2006-D54 : 2006 DQ62

The following Minor Planet Electronic Circular may be linked-to from your own Web pages, but must not otherwise be redistributed electronically.


Read MPEC 2006-D53 Read MPEC 2006-D55


M.P.E.C. 2006-D54                                Issued 2006 Feb. 27, 19:52 UT

     The Minor Planet Electronic Circulars contain information on unusual
         minor planets and routine data on comets.  They are published
   on behalf of Commission 20 of the International Astronomical Union by the
          Minor Planet Center, Smithsonian Astrophysical Observatory,
                          Cambridge, MA 02138, U.S.A.

                  Supported in part by the Brinson Foundation
                  Supported in part by the TABASGO Foundation
             Prepared using the Tamkin Foundation Computer Network

                              MPC@CFA.HARVARD.EDU
          URL http://cfa-www.harvard.edu/iau/mpc.html  ISSN 1523-6714

                                   2006 DQ62

Observations:
     K06D62Q* C2006 02 25.13071 04 07 37.38 -01 12 04.7          19.4 V ED054703
     K06D62Q  C2006 02 25.13712 04 07 35.04 -01 12 07.4          19.5 V ED054703
     K06D62Q  C2006 02 25.14354 04 07 32.59 -01 12 10.2          19.6 V ED054703
     K06D62Q  C2006 02 25.14999 04 07 30.25 -01 12 13.5          19.8 V ED054703
     K06D62Q  C2006 02 25.15645 04 07 27.91 -01 12 17.2          19.4 V ED054703
     K06D62Q  C2006 02 25.16185 04 07 25.86 -01 12 21.2          19.1 V ED054703
     K06D62Q  C2006 02 25.16719 04 07 23.91 -01 12 24.1          19.7 V ED054703
     K06D62Q  C2006 02 25.17252 04 07 21.93 -01 12 26.2          19.3 V ED054703
     K06D62Q IC2006 02 25.80210 04 03 34.19 -01 18 24.6                 ED054J95
     K06D62Q IC2006 02 25.80444 04 03 33.29 -01 18 24.7                 ED054J95
     K06D62Q pC2006 02 25.80728 04 03 32.24 -01 18 26.8                 ED054J95
     K06D62Q pC2006 02 25.80897 04 03 31.66 -01 18 28.3          19.4 R ED054J95
     K06D62Q  C2006 02 27.11976 03 55 26.83 -01 30 35.0          19.3 V ED054703
     K06D62Q  C2006 02 27.12490 03 55 24.88 -01 30 37.2          19.9 V ED054703
     K06D62Q  C2006 02 27.12536 03 55 24.50 -01 30 40.5          19.3 R ED054734
     K06D62Q  C2006 02 27.12924 03 55 23.02 -01 30 43.4          19.4 R ED054734
     K06D62Q  C2006 02 27.13006 03 55 22.90 -01 30 41.0          19.6 V ED054703
     K06D62Q  C2006 02 27.13529 03 55 20.92 -01 30 43.1          19.1 V ED054703
     K06D62Q  C2006 02 27.13660 03 55 20.23 -01 30 48.0                 ED054734
     K06D62Q  C2006 02 27.14053 03 55 18.96 -01 30 46.1          19.6 R ED054854
     K06D62Q  C2006 02 27.14639 03 55 16.57 -01 30 50.0          19.4 R ED054854
     K06D62Q  C2006 02 27.15253 03 55 14.36 -01 30 53.8          19.7 R ED054854
     K06D62Q  C2006 02 27.15404 03 55 13.72 -01 30 53.8          19.2 V ED054G96
     K06D62Q  C2006 02 27.15619 03 55 12.90 -01 30 55.3          19.2 V ED054G96
     K06D62Q  C2006 02 27.16098 03 55 11.06 -01 30 58.2          19.1 V ED054G96
     K06D62Q  C2006 02 27.16324 03 55 10.23 -01 30 59.1          19.1 V ED054G96

Observer details:
703 Catalina Sky Survey.  Observers R. A. Kowalski, S. M. Larson.  Measurers
    E. C. Beshore, E. J. Christensen, G. J. Garradd, A. D. Grauer, R. E. Hill,
    R. A. Kowalski, S. M. Larson, R. H. McNaught.  0.68-m Schmidt + CCD.
734 Farpoint Observatory.  Observer K. Dobbs.  Measurer G. Hug.  0.7-m
    reflector + CCD.
854 Sabino Canyon Observatory, Tucson.  Observer J. E. McGaha.  0.36-m f/10.0
    Schmidt-Cassegrain + CCD.
G96 Mt. Lemmon Survey.  Observer R. Hill.  Measurers E. C. Beshore,
    E. J. Christensen, G. J. Garradd, A. R. Gibbs, A. D. Grauer, R. E. Hill,
    R. A. Kowalski, S. M. Larson, R. H. McNaught.  1.5-m reflector + CCD.
J95 Great Shefford.  Observer P. Birtwhistle.  0.40-m f/6.0 Schmidt-Cassegrain
    + CCD.

Orbital elements:
2006 DQ62                                                Earth MOID = 0.0985 AU
Epoch 2006 Mar. 6.0 TT = JDT 2453800.5                  MPC
M 348.68376              (2000.0)            P               Q
n   0.30875253     Peri.    6.49713     -0.71418998     +0.69705460
a   2.1680154      Node   217.95656     -0.64675922     -0.69193916
e   0.7066425      Incl.    5.93713     -0.26764750     -0.18797628
P   3.19           H   19.5           G   0.15           U   9
Residuals in seconds of arc
060225 703  0.2-  0.9-    060225 J95  0.3-  0.5+    060227 734  0.8+  0.7-
060225 703  0.3+  0.1-    060225 J95  0.1-  0.0     060227 854  0.8+  0.4+
060225 703  0.7-  0.7+    060225 J95  0.6+  0.6-    060227 854  1.3-  0.2-
060225 703  0.0   0.9+    060227 703  0.7-  0.1-    060227 854  0.8+  0.5-
060225 703  0.7+  0.8+    060227 703  0.3-  0.6+    060227 G96  0.1-  0.4+
060225 703  0.1-  0.3-    060227 734  0.5+  0.4+    060227 G96  0.0   0.1+
060225 703  0.3+  0.2-    060227 734  0.5+  0.3-    060227 G96  0.1-  0.1-
060225 703  0.1+  0.6+    060227 703  0.3-  0.3-    060227 G96  0.4+  0.3+
060225 J95  0.1+  0.7-    060227 703  0.1+  0.6+

Ephemeris:
2006 DQ62                a,e,i = 2.17, 0.71, 6                   q = 0.6360
Date    TT    R. A. (2000) Decl.     Delta      r     Elong.  Phase     V
2006 02 24    04 14.37   -01 01.4    0.274    1.011    86.5    77.8    19.4
2006 02 26    04 02.38   -01 19.8    0.269    0.987    81.6    82.8    19.5
2006 02 28    03 49.93   -01 38.6    0.264    0.964    76.6    87.9    19.6
2006 03 02    03 36.99   -01 57.9    0.260    0.941    71.5    93.3    19.8
2006 03 04    03 23.48   -02 17.7    0.256    0.919    66.3    98.9    19.9
2006 03 06    03 09.37   -02 37.9    0.254    0.896    60.9   104.8    20.2

Kyle E. Smalley              (C) Copyright 2006 MPC           M.P.E.C. 2006-D54

Read MPEC 2006-D53 Read MPEC 2006-D55


Our Web policy. Index to the CBAT/MPC/ICQ pages.


Valid HTML 4.01!